SB KEPS @ AMSAT $ORB25129.1
2Line Orbital Elements 25129.AMSAT
QST de W1STR
AMSAT Orbital Elements for Amateur Satellites in TLE Format
From Orbital Analysis Office
New England Sci-Tech STEM Education Center
Natick, MA May 09, 2025
To all radio amateurs
These element sets describe the orbits of various satellites
in use by the amateur radio community. For details see:
www.amsat.org/keplerian-elements-formats/
A daily update of element sets is available at:
www.amsat.org/tle/daily-bulletin.txt
or without bulletin text:
www.amsat.org/tle/dailytle.txt
AO-07
1 07530U 74089B 25128.23691855 -.00000029 00000-0 11159-3 0 9992
2 07530 101.9940 132.1559 0012213 182.0222 190.6956 12.53688889310012
UO-11
1 14781U 84021B 25128.82249524 .00001892 00000-0 20532-3 0 9995
2 14781 97.7521 95.8267 0009499 82.9272 277.3026 14.89290774217910
AO-27
1 22825U 93061C 25128.67885985 .00000156 00000-0 76849-4 0 9992
2 22825 98.7385 190.0718 0008035 198.8940 161.1945 14.30788239649429
FO-29
1 24278U 96046B 25128.29542003 .00000029 00000-0 62875-4 0 9994
2 24278 98.5795 26.4320 0350941 66.3092 297.4460 13.53246615418655
NOAA-15
1 25338U 98030A 25128.83745838 .00000291 00000-0 13705-3 0 9996
2 25338 98.5374 154.7295 0011528 92.8699 267.3801 14.26961124403877
GO-32
1 25397U 98043D 25128.16666112 .00000124 00000-0 73926-4 0 9995
2 25397 98.9687 106.6131 0000740 1.8410 358.2770 14.24306564393897
ISS
1 25544U 98067A 25128.56886642 .00009246 00000-0 17328-3 0 9998
2 25544 51.6371 143.3092 0002526 92.2284 52.6728 15.49415554509017
NO-44
1 26931U 01043C 25128.37206176 .00000219 00000-0 11311-3 0 9991
2 26931 67.0508 211.1122 0005750 273.1550 86.8894 14.31718909232653
SO-50
1 27607U 02058C 25128.49072123 .00001596 00000-0 21678-3 0 9991
2 27607 64.5527 299.5801 0052443 341.4667 18.4526 14.81540006204681
CO-55
1 27844U 03031E 25128.56853345 .00000469 00000-0 22367-3 0 9991
2 27844 98.6768 137.2545 0008366 282.0820 77.9421 14.23971028134110
CO-57
1 27848U 03031J 25128.00994077 .00000378 00000-0 18617-3 0 9994
2 27848 98.6796 136.7332 0008415 303.4744 56.5629 14.23308510133786
RS-22
1 27939U 03042A 25128.87349838 .00001636 00000-0 26715-3 0 9997
2 27939 98.3259 297.5654 0012686 109.1524 358.7657 14.72271431156163
NOAA-18
1 28654U 05018A 25128.84150477 .00000252 00000-0 15688-3 0 9993
2 28654 98.8420 208.6742 0013657 215.4859 144.5406 14.13593714 29264
CO-58
1 28895U 05043F 25127.86697685 .00002029 00000-0 33930-3 0 9990
2 28895 98.2446 271.8197 0015414 54.5139 305.7502 14.70902932 42368
CO-65
1 32785U 08021C 25128.47656937 .00006398 00000-0 46593-3 0 9997
2 32785 97.7811 99.4142 0009024 329.4261 30.6437 15.04093680924320
AAUSAT2
1 32788U 08021F 25128.42695113 .00660024 17589-3 20768-2 0 9994
2 32788 97.5926 126.4234 0008364 148.4968 211.6808 15.91312137928425
CO-66
1 32791U 08021J 25128.21305226 .00013480 00000-0 66735-3 0 9998
2 32791 97.7261 107.5559 0001497 296.8338 63.2742 15.17916058925663
RS-30
1 32953U 08025A 25128.85420615 .00000016 00000-0 39208-4 0 9999
2 32953 82.5026 246.9043 0020535 115.0082 245.3134 12.43163807769590
NOAA-19
1 33591U 09005A 25128.84281814 .00000234 00000-0 14886-3 0 9998
2 33591 98.9988 193.3667 0014852 94.1645 266.1224 14.13357997837626
SRMSAT
1 37841U 11058D 25128.02281311 .00000484 00000-0 11921-3 0 9997
2 37841 19.9734 351.5643 0011780 67.1278 83.8144 14.11425243700724
ZACUBE-1
1 39417U 13066B 25128.35754277 .00005434 00000-0 47571-3 0 9991
2 39417 97.7771 85.5546 0045254 157.2149 203.1094 14.96335725620097
Delfi-N3xt
1 39428U 13066N 25128.68989145 .00007125 00000-0 73121-3 0 9992
2 39428 97.8360 46.7092 0087339 105.1452 255.9445 14.87880310614518
GOMX-1
1 39430U 13066Q 25128.84989208 .00002068 00000-0 32857-3 0 9995
2 39430 97.6875 349.4577 0131371 294.3460 64.4077 14.67524311610757
LO-74
1 39440U 13066AA 25127.83459479 .00004073 00000-0 41714-3 0 9996
2 39440 97.8471 72.6308 0060675 288.8168 70.6475 14.89703244616564
AO-73
1 39444U 13066AE 25127.83874944 .00007654 00000-0 57994-3 0 9993
2 39444 97.7790 89.6405 0042413 135.8585 224.6037 15.01833182618670
DTUSAT-2
1 40030U 14033W 25128.50829465 .00007389 00000-0 48645-3 0 9992
2 40030 98.0534 98.7922 0009952 156.2470 203.9218 15.07819834592079
EO-80
1 40032U 14033Y 25128.19849257 .00008357 00000-0 54847-3 0 9997
2 40032 98.0409 98.1673 0010421 106.4966 253.7406 15.07882146592011
LILACSAT-2
1 40908U 15049K 25128.87067781 .00013154 00000-0 35170-3 0 9995
2 40908 97.5081 148.4659 0007273 273.0307 87.0105 15.38174329533354
IO-86
1 40931U 15052B 25038.81889873 .00001817 00000-0 15548-3 0 9993
2 40931 6.0001 108.1159 0012838 187.7041 172.2889 14.78568669506492
Horyu-4
1 41340U 16012D 25127.92575388 .00021699 00000-0 60641-3 0 9993
2 41340 30.9972 351.3041 0007251 67.4975 292.6437 15.35437702507769
Lapan A3
1 41603U 16040E 25128.84088980 .00004320 00000-0 15268-3 0 9992
2 41603 97.1375 134.6985 0011917 32.2518 327.9449 15.29636883492930
CAS-2T
1 41847U 16066G 25128.17034528 .00000997 00000-0 15252-3 0 9994
2 41847 98.4206 202.9125 0345172 276.5847 79.6168 14.43395451446344
CAS-4B
1 42759U 17034B 25128.54608643 .00061562 00000-0 75266-3 0 9995
2 42759 43.0067 152.2393 0018051 64.9296 295.3439 15.59362173437590
CAS-4A
1 42761U 17034D 25128.53855888 .00064376 00000-0 75626-3 0 9998
2 42761 43.0103 149.7501 0019232 69.7370 290.5559 15.60361087437612
TechnoSat
1 42829U 17042E 25128.59183567 .00003865 00000-0 30224-3 0 9997
2 42829 97.3929 298.8323 0014893 34.3063 325.9121 15.01535033425926
AO-91
1 43017U 17073E 25128.06911756 .00006882 00000-0 35892-3 0 9990
2 43017 97.5289 359.6685 0172753 277.4325 80.7302 15.04224870404320
S-Net D
1 43186U 18014G 25128.26238017 .00005672 00000-0 33847-3 0 9991
2 43186 97.5659 31.5015 0008592 348.7662 11.3375 15.11502736397493
S-Net B
1 43187U 18014H 25127.73774416 .00005729 00000-0 34205-3 0 9993
2 43187 97.5664 30.9525 0009228 344.0922 16.0017 15.11476942397410
S-Net A
1 43188U 18014J 25128.66007529 .00005854 00000-0 34907-3 0 9999
2 43188 97.5672 32.0111 0008980 342.4262 17.6656 15.11513329397559
S-Net C
1 43189U 18014K 25127.80626530 .00005714 00000-0 34110-3 0 9995
2 43189 97.5689 31.1746 0010412 335.1162 24.9564 15.11474573395973
Ten-Koh
1 43677U 18084G 25128.18667438 .00002664 00000-0 21693-3 0 9991
2 43677 98.0896 299.1572 0007024 34.9407 325.2275 15.00424177355385
PO-101
1 43678U 18084H 25128.86572173 .00002516 00000-0 21733-3 0 9999
2 43678 98.1014 303.7875 0008813 35.6035 324.5773 14.98185492355632
QO-100
1 43700U 18090A 25128.53033644 .00000148 00000-0 00000+0 0 9990
2 43700 0.0117 269.9238 0002206 174.9072 358.4701 1.00271655 23868
MinXSS-2
1 43758U 18099A 25127.92009098 .00015351 00000-0 62235-3 0 9994
2 43758 97.5038 193.8722 0010514 266.9807 93.0228 15.24682295351997
AO-95
1 43770U 18099N 25128.65621881 .00009591 00000-0 49284-3 0 9997
2 43770 97.4941 187.1047 0009457 329.4727 30.5954 15.16651075351714
RANGE-A
1 43773U 18099R 25127.84163467 .00004137 00000-0 26690-3 0 9998
2 43773 97.4511 177.1949 0009798 309.1795 50.8562 15.08781644351287
MOVE-II
1 43780U 18099Y 25128.46583439 .00158207 00000-0 16402-2 0 9997
2 43780 97.4678 201.9447 0005715 220.7479 139.3353 15.64144802352766
SNUSat 2
1 43782U 18099AA 25127.70045006 .00009389 00000-0 51833-3 0 9992
2 43782 97.4626 183.1764 0010575 265.3252 94.6772 15.14103459351527
SnugLite
1 43784U 18099AC 25127.70386370 .00011034 00000-0 56219-3 0 9999
2 43784 97.4440 182.6764 0002010 255.3269 104.7742 15.16946329351656
ITASat 1
1 43786U 18099AE 25127.86877239 .00005881 00000-0 34066-3 0 9996
2 43786 97.4596 182.9455 0013064 324.5248 35.5113 15.12515679351511
EAGLET 1
1 43790U 18099AJ 25128.65309849 .00004190 00000-0 27031-3 0 9992
2 43790 97.4788 183.7709 0010589 302.4977 57.5228 15.08777817351254
ESEO
1 43792U 18099AL 25128.70232270 .00001611 00000-0 12564-3 0 9993
2 43792 97.4475 177.5073 0010988 274.5356 85.4614 15.02479946351038
CSIM
1 43793U 18099AM 25128.24632714 .00135697 00000-0 14308-2 0 9999
2 43793 97.4849 203.9329 0007730 221.5603 138.5069 15.63770192352578
JO-97
1 43803U 18099AX 25128.66588365 .00011689 00000-0 54378-3 0 9995
2 43803 97.4687 188.0410 0006216 247.8387 112.2188 15.20089872351922
Suomi 100
1 43804U 18099AY 25128.63008963 .00010191 00000-0 50699-3 0 9993
2 43804 97.4757 187.3902 0011034 255.0210 104.9803 15.17756579351854
ISAT
1 43879U 18111D 25127.90963005 .00018881 00000-0 67903-3 0 9996
2 43879 97.5978 41.6097 0007205 327.1290 32.9500 15.28646584348703
UWE-4
1 43880U 18111E 25127.93849395 .00014691 00000-0 59125-3 0 9998
2 43880 97.5922 40.3377 0010994 335.8042 24.2678 15.24936668348656
Sparrow
1 43881U 18111F 25128.30944508 .00021286 00000-0 73823-3 0 9992
2 43881 97.6120 44.7733 0007095 14.2356 345.9082 15.29809044346850
Prox-1
1 44339U 19036A 25128.65141436 .00012264 00000-0 15758-2 0 9993
2 44339 23.9969 271.4220 0008004 67.5768 292.5576 14.79304281313374
SONATE
1 44400U 19038Q 25128.03828184 .00144089 00000-0 75369-3 0 9994
2 44400 97.6946 150.9474 0003593 46.6854 313.4712 15.80423501324412
Taurus 1
1 44530U 19059C 25128.84461269 .00008597 00000-0 15954-2 0 9993
2 44530 98.6028 266.7479 0010826 134.5643 225.6444 14.65441547299294
Duchifat 3
1 44854U 19089C 25128.57559087 .00043171 00000-0 92107-3 0 9994
2 44854 36.9434 198.2758 0000709 2.8206 357.2554 15.43922417297995
TO-108
1 44881U 19093C 25128.49863421 .00001268 00000-0 15277-3 0 9994
2 44881 97.7929 204.8190 0013231 342.9142 17.1626 14.85535144291318
FloripaSat 1
1 44885U 19093G 25128.82558656 .00005946 00000-0 50648-3 0 9994
2 44885 97.8147 216.3716 0009823 313.2999 46.7403 14.98120224291998
RS-44
1 44909U 19096E 25128.42221900 .00000003 00000-0 -32647-4 0 9999
2 44909 82.5212 248.6410 0217523 11.0737 349.5040 12.79740391250625
UPMSat 2
1 46276U 20061E 25128.23759573 .00059840 00000-0 61893-3 0 9999
2 46276 97.2464 201.6322 0001352 155.7971 204.3352 15.64555201260406
SALSAT
1 46495U 20068K 25127.49176997 .00008587 00000-0 37590-3 0 9998
2 46495 97.8582 104.0082 0009491 279.1572 80.8589 15.22269545253492
